Location: Maiden
(35.5760°N, 81.2120°W)
Time: 02:35:39
(UTC-04:00)

A-11 Canister half - Pass Details

Date: 06 August 2020
Orbit: 1527 x 1682 km, 47.3° (Epoch: 25 September)

Event Time Altitude Azimuth Distance (km) Brightness Sun altitude
Rises 20:24:34 0° 304° (WNW) 4,908 13.8 -1.0°
Reaches altitude 10° 20:27:45 10° 304° (WNW) 3,904 13.0 -1.6°
Maximum altitude 20:37:45 85° 218° (SW) 1,625 9.2 -3.5°
Drops below altitude 10° 20:47:24 10° 130° (SE) 3,770 10.4 -5.3°
Enters shadow 20:48:58 - 130° (SE) 4,268 10.7 -5.6°
Sets 20:50:25 0° 130° (SE) 4,733 - -5.9°
